Orbital Elements at Epoch 2459200.5 (2020-Dec-17.0) TDB
Reference: JPL 25 (heliocentric ecliptic J2000)
Element | Value | Uncertainty (1-sigma) | Units |
e | .1213512497092126 | 3.6882e-08 | |
a | 2.248631333569408 | 8.49e-09 | au |
q | 1.975757111105467 | 8.2899e-08 | au |
i | 6.336916104634818 | 4.5817e-06 | deg |
node | 193.7235115383295 | 3.1653e-05 | deg |
peri | 35.18071075126503 | 3.6238e-05 | deg |
M | 231.8422781883658 | 1.8252e-05 | deg |
tp | 2459638.947998395853 (2022-Feb-28.44799840) | 6.3582e-05 | TDB |
period | 1231.617394498491 3.37 | 6.9752e-06 1.91e-08 | d yr |
n | .2922985674025743 | 1.6554e-09 | deg/d |
Q | 2.521505556033349 | 9.5202e-09 | au |
|
| | Orbit Determination Parameters
Additional Information
|